951  
ASUS43 KFSD 150110  
RWRFSD  
 
WEATHER ROUNDUP FOR SE SOUTH DAKOTA/SW MINNESOTA/NW IOWA  
NATIONAL WEATHER SERVICE SIOUX FALLS SD  
800 PM CDT WED APR 14 2021  
 
NOTE: "FAIR" INDICATES FEW OR NO CLOUDS BELOW 12,000 FEET WITH NO  
SIGNIFICANT WEATHER AND OR S TO VISIBILITY
.  
 
 
SDZ038>040-050-052>070-150200-  
SOUTHEAST SOUTH DAKOTA  
 
CITY SKY/WX TMP DP RH WIND PRES REMARKS
 
BROOKINGS CLOUDY 39 31 72 NW13 30.22S  
CHAMBERLAIN PTCLDY 42 27 53 N7 30.26S  
HURON CLOUDY 42 30 62 N12 30.26S  
MITCHELL PTCLDY 42 28 57 N15 30.26S  
SIOUX FALLS MOCLDY 41 29 62 N14G21 30.23F  
WINNER PTCLDY 42 23 46 N7 30.25S  
YANKTON CLEAR 42 28 57 N9 30.24S  

 
 
MNZ071-072-080-081-089-090-097-098-150200-  
SOUTHWEST MINNESOTA  
 
CITY SKY/WX TMP DP RH WIND PRES REMARKS
 
FAIRMONT CLOUDY 39 33 79 NW17 30.19S  
JACKSON CLOUDY 39 32 75 NW18 30.20R  
LUVERNE CLOUDY 37 30 75 NW12G17 30.23S  
MARSHALL CLOUDY 38 32 79 N17 30.23S  
MONTEVIDEO CLOUDY 36 30 80 N16G24 30.24S  
PIPESTONE CLOUDY 39 32 75 N8 30.20F  
REDWOOD FALLS CLOUDY 38 32 79 NW13G21 30.22R  
TRACY CLOUDY 38 31 75 N15 30.22R  
WINDOM CLOUDY 37 32 81 NW21 30.19S  
WORTHINGTON CLOUDY 40 31 70 NW17 30.21R  

 
 
IAZ001>003-012>014-020>022-031-032-NEZ013-014-SDZ071-150200-  
NORTHWEST IOWA  
 
CITY SKY/WX TMP DP RH WIND PRES REMARKS
 
CHEROKEE CLEAR 42 31 65 N10 30.21R  
DENISON CLEAR 45 27 49 N9 30.19S  
ESTHERVILLE CLOUDY 39 32 76 N15 30.19S  
LE MARS CLEAR 43 30 61 N14 30.21R  
MAURICE FAIR 41 30 65 N15 30.21R  
SHELDON CLOUDY 41 32 70 NW14 30.20S  
SIOUX CITY CLEAR 45 28 51 N14 30.21S  
SPENCER CLOUDY 44 31 60 N10 30.20S  
STORM LAKE MOCLDY 43 30 61 N18 30.19S  

 
 
ABBREVIATIONS USED IN REMARKS  
TC - TEMPERATURE IN CELSIUS  
WCI - WIND CHILL INDEX  
HX - HEAT INDEX  
VSB - VISIBILITY  
 
 
 
CLICK HERE TO GO TO PREVIOUS BULLETINS.

The Nexlab SD Page
The Nexlab IA Page
The Nexlab MN Page
The Nexlab NE Page Main Text Page